Weather History for Tallahassee, FL

Change the Weather History Date:

Friday, September 27, 2013

  Actual Average Record
Temperature  
Mean Temperature 74 °F 76 °F  
Max Temperature 85 °F 86 °F 96 °F (1972)
Min Temperature 62 °F 65 °F 47 °F (2001)
Degree Days  
Heating Degree Days 0    
Month to date heating degree days 0  
Since 1 July heating degree days 0  
Cooling Degree Days 9    
Month to date cooling degree days 440  
Year to date cooling degree days 2476  
Growing Degree Days 23 (Base 50)    
Moisture  
Dew Point 58 °F    
Average Humidity 63    
Maximum Humidity 93    
Minimum Humidity 32    
Precipitation  
Precipitation 0.00 in 0.14 in 2.80 in (1999)
Month to date precipitation 3.15 4.30  
Year to date precipitation 56.44 48.21  
Sea Level Pressure  
Sea Level Pressure 29.99 in    
Wind  
Wind Speed 6 mph (NNE)    
Max Wind Speed 14 mph    
Max Gust Speed 18 mph    
Visibility 10 miles    
Events      
T = Trace of Precipitation, MM = Missing Value Source: NWS Daily Summary

Daily Weather History Graph

Daily Weather History Graph

Search for Another Location

Airport:

Trip Planner

Search our weather history database for the weather conditions in past years. The results will help you decide how hot, cold, wet, or windy it might be!

Date:

Astronomy

Sep. 27, 2013 Rise Set
Actual Time 7:28 AM EDT 7:27 PM EDT
Civil Twilight 7:04 AM EDT 7:51 PM EDT
Nautical Twilight 6:36 AM EDT 8:19 PM EDT
Astronomical Twilight 6:08 AM EDT 8:47 PM EDT
Moon 12:46 AM EDT (9/27) 2:43 PM EDT (9/27)
Length of Visible Light 12h 46m
Length of Day
11h 58m
Last Quarter, 45% of the Moon is Illuminated
Sep 27
Last Quarter
Oct 4
New
Oct 11
First Quarter
Oct 18
Full
Oct 26
Last Quarter

Hourly Weather History & Observations

Time (EDT) Temp. Heat Index Dew Point Humidity Pressure Visibility Wind Dir Wind Speed Gust Speed Precip Events Conditions
12:53 AM 69.1 °F - 66.0 °F 90% 29.96 in 10.0 mi North 3.5 mph - N/A   Clear
1:53 AM 66.0 °F - 63.0 °F 90% 29.95 in 10.0 mi Calm Calm - N/A   Clear
2:53 AM 64.9 °F - 62.1 °F 90% 29.95 in 10.0 mi Calm Calm - N/A   Clear
3:53 AM 64.9 °F - 62.1 °F 90% 29.95 in 10.0 mi Calm Calm - N/A   Clear
4:53 AM 63.0 °F - 60.1 °F 90% 29.96 in 10.0 mi Calm Calm - N/A   Clear
5:53 AM 63.0 °F - 60.1 °F 90% 29.97 in 10.0 mi Calm Calm - N/A   Clear
6:53 AM 64.9 °F - 62.1 °F 90% 29.98 in 10.0 mi North 4.6 mph - N/A   Clear
7:53 AM 64.9 °F - 62.1 °F 90% 30.00 in 9.0 mi North 3.5 mph - N/A   Clear
8:53 AM 69.1 °F - 63.0 °F 81% 30.02 in 10.0 mi NNE 4.6 mph - N/A   Clear
9:53 AM 73.9 °F - 63.0 °F 68% 30.03 in 10.0 mi NNE 6.9 mph - N/A   Clear
10:53 AM 77.0 °F - 57.9 °F 52% 30.04 in 10.0 mi NE 9.2 mph - N/A   Clear
11:53 AM 80.1 °F 80.1 °F 55.0 °F 42% 30.03 in 10.0 mi NNE 9.2 mph - N/A   Clear
12:53 PM 81.0 °F 80.4 °F 53.1 °F 38% 30.03 in 10.0 mi NE 10.4 mph - N/A   Clear
1:53 PM 82.9 °F - 51.1 °F 33% 30.00 in 10.0 mi NE 5.8 mph 16.1 mph N/A   Partly Cloudy
2:53 PM 82.9 °F - 51.1 °F 33% 29.99 in 10.0 mi NNE 12.7 mph - N/A   Partly Cloudy
3:53 PM 82.9 °F - 52.0 °F 34% 29.97 in 10.0 mi NNE 8.1 mph 16.1 mph N/A   Clear
4:53 PM 84.0 °F - 52.0 °F 33% 29.97 in 10.0 mi NNE 11.5 mph - N/A   Partly Cloudy
5:53 PM 82.9 °F 81.8 °F 53.1 °F 36% 29.97 in 10.0 mi NE 10.4 mph - N/A   Partly Cloudy
6:53 PM 81.0 °F 80.5 °F 54.0 °F 39% 29.99 in 10.0 mi NE 6.9 mph - N/A   Clear
7:53 PM 75.9 °F - 55.9 °F 50% 29.99 in 10.0 mi NE 4.6 mph - N/A   Clear
8:53 PM 73.9 °F - 57.0 °F 55% 30.01 in 10.0 mi NNE 4.6 mph - N/A   Clear
9:53 PM 73.9 °F - 55.0 °F 52% 30.03 in 10.0 mi NE 4.6 mph - N/A   Clear
10:53 PM 73.9 °F - 54.0 °F 50% 30.05 in 10.0 mi NE 5.8 mph - N/A   Clear
11:53 PM 73.0 °F - 54.0 °F 51% 30.05 in 10.0 mi NE 6.9 mph - N/A   Clear